RXI252 OERK-OEJN

Flight info

Callsign RXI252
Flight time 1h 22m
Altitude 36000
Route DURMA1L DURMA G782 VEMEM VEMEM2N
Aircraft A21N/M-SDE2E3FGHIRWXY/LB1

Departure

Time 2026-04-29 01:19
Airport King Khalid International Airport (OERK)

Arrival

Time 2026-04-29 02:42
Airport King Abdulaziz International Airport (OEJN)
Time Latitude Longitude Altitude Speed Heading
2026-04-29 00:55 24.94915 46.71336 2037 ft 0 kts 240°
2026-04-29 01:06 24.94921 46.71347 2037 ft 4 kts 240°
2026-04-29 01:06 24.94934 46.71374 2041 ft 4 kts 240°
2026-04-29 01:06 24.94946 46.71395 2037 ft 3 kts 239°
2026-04-29 01:06 24.94962 46.71417 2045 ft 4 kts 212°
2026-04-29 01:07 24.94984 46.71424 2037 ft 4 kts 166°
2026-04-29 01:07 24.95007 46.71413 2041 ft 4 kts 149°
2026-04-29 01:07 24.95029 46.71400 2042 ft 1 kts 150°
2026-04-29 01:07 24.95029 46.71399 2043 ft 0 kts 150°
2026-04-29 01:10 24.95019 46.71406 2039 ft 3 kts 151°
2026-04-29 01:10 24.94990 46.71423 2044 ft 6 kts 150°
2026-04-29 01:10 24.94942 46.71454 2041 ft 10 kts 150°
2026-04-29 01:10 24.94878 46.71494 2043 ft 12 kts 150°
2026-04-29 01:11 24.94803 46.71541 2043 ft 14 kts 150°
2026-04-29 01:11 24.94716 46.71596 2044 ft 15 kts 149°
2026-04-29 01:11 24.94619 46.71659 2038 ft 17 kts 149°
2026-04-29 01:11 24.94511 46.71727 2040 ft 19 kts 150°
2026-04-29 01:12 24.94401 46.71797 2039 ft 15 kts 146°
2026-04-29 01:12 24.94388 46.71882 2042 ft 13 kts 61°
2026-04-29 01:12 24.94356 46.71966 2042 ft 15 kts 151°
2026-04-29 01:12 24.94304 46.72054 2038 ft 16 kts 77°
2026-04-29 01:13 24.94325 46.72105 2040 ft 0 kts 58°
2026-04-29 01:16 24.94333 46.72120 2041 ft 4 kts 58°
2026-04-29 01:16 24.94352 46.72153 2040 ft 6 kts 58°
2026-04-29 01:16 24.94378 46.72199 2038 ft 8 kts 59°
2026-04-29 01:16 24.94405 46.72250 2038 ft 6 kts 59°
2026-04-29 01:17 24.94416 46.72267 2038 ft 1 kts 27°
2026-04-29 01:17 24.94429 46.72262 2045 ft 3 kts 330°
2026-04-29 01:17 24.94432 46.72260 2038 ft 0 kts 329°
2026-04-29 01:18 24.94450 46.72248 2045 ft 12 kts 329°
2026-04-29 01:18 24.95406 46.71641 2037 ft 140 kts 330°
2026-04-29 01:18 24.96340 46.71051 2036 ft 174 kts 330°
2026-04-29 01:19 24.97402 46.70376 2553 ft 173 kts 330°
2026-04-29 01:19 24.98470 46.69694 3113 ft 179 kts 331°
2026-04-29 01:19 24.99550 46.69004 3707 ft 181 kts 331°
2026-04-29 01:19 25.00689 46.68273 4137 ft 199 kts 329°
2026-04-29 01:20 25.01659 46.67109 4510 ft 226 kts 294°
2026-04-29 01:20 25.01825 46.65266 4821 ft 257 kts 256°
2026-04-29 01:20 25.00968 46.63510 5252 ft 274 kts 231°
2026-04-29 01:20 24.99708 46.61874 5928 ft 286 kts 229°
2026-04-29 01:21 24.98432 46.60174 6745 ft 289 kts 231°
2026-04-29 01:21 24.97191 46.58409 7601 ft 291 kts 232°
2026-04-29 01:21 24.95988 46.56618 8396 ft 291 kts 234°
2026-04-29 01:21 24.94799 46.54793 9127 ft 296 kts 234°
2026-04-29 01:22 24.93600 46.52934 9824 ft 299 kts 234°
2026-04-29 01:22 24.92380 46.51031 10387 ft 311 kts 233°
2026-04-29 01:22 24.91103 46.49024 10724 ft 329 kts 233°
2026-04-29 01:22 24.89755 46.46905 11166 ft 343 kts 233°
2026-04-29 01:23 24.88381 46.44741 11932 ft 346 kts 233°
2026-04-29 01:23 24.87004 46.42572 12809 ft 346 kts 233°
2026-04-29 01:23 24.85621 46.40389 13676 ft 347 kts 233°
2026-04-29 01:23 24.84235 46.38208 14499 ft 348 kts 233°
2026-04-29 01:24 24.82844 46.36025 15294 ft 349 kts 233°
2026-04-29 01:24 24.81449 46.33831 16054 ft 350 kts 234°
2026-04-29 01:24 24.80045 46.31627 16808 ft 352 kts 234°
2026-04-29 01:24 24.78656 46.29444 17548 ft 353 kts 234°
2026-04-29 01:25 24.77245 46.27227 18257 ft 354 kts 235°
2026-04-29 01:25 24.75829 46.25001 18937 ft 356 kts 235°
2026-04-29 01:25 24.74400 46.22757 19569 ft 358 kts 235°
2026-04-29 01:25 24.72971 46.20512 20218 ft 358 kts 235°
2026-04-29 01:26 24.71533 46.18260 20825 ft 361 kts 235°
2026-04-29 01:26 24.70087 46.15998 21422 ft 362 kts 235°
2026-04-29 01:26 24.68633 46.13721 22014 ft 365 kts 236°
2026-04-29 01:26 24.67170 46.11431 22613 ft 367 kts 236°
2026-04-29 01:27 24.65700 46.09131 23173 ft 369 kts 236°
2026-04-29 01:27 24.64227 46.06821 23729 ft 370 kts 236°
2026-04-29 01:27 24.62744 46.04496 24232 ft 372 kts 236°
2026-04-29 01:27 24.61253 46.02164 24700 ft 374 kts 236°
2026-04-29 01:28 24.59752 45.99813 25126 ft 377 kts 236°
2026-04-29 01:28 24.58241 45.97452 25545 ft 379 kts 236°
2026-04-29 01:28 24.56719 45.95078 25950 ft 381 kts 236°
2026-04-29 01:28 24.55188 45.92688 26348 ft 384 kts 236°
2026-04-29 01:29 24.53647 45.90279 26678 ft 387 kts 237°
2026-04-29 01:29 24.52620 45.88676 26904 ft 389 kts 237°
2026-04-29 01:29 24.51059 45.86242 27234 ft 391 kts 237°
2026-04-29 01:29 24.48972 45.82989 27668 ft 394 kts 237°
2026-04-29 01:30 24.47388 45.80522 27971 ft 397 kts 237°
2026-04-29 01:30 24.45806 45.78036 28257 ft 398 kts 238°
2026-04-29 01:30 24.44420 45.75398 28508 ft 399 kts 244°
2026-04-29 01:30 24.43598 45.73544 28706 ft 401 kts 245°
2026-04-29 01:31 24.42411 45.70766 28965 ft 403 kts 246°
2026-04-29 01:31 24.41231 45.68013 29220 ft 405 kts 246°
2026-04-29 01:31 24.40016 45.65211 29482 ft 406 kts 246°
2026-04-29 01:31 24.38780 45.62404 29727 ft 408 kts 245°
2026-04-29 01:32 24.37533 45.59598 29961 ft 410 kts 245°
2026-04-29 01:32 24.36278 45.56777 30184 ft 413 kts 245°
2026-04-29 01:32 24.35015 45.53945 30470 ft 413 kts 245°
2026-04-29 01:32 24.33757 45.51122 30784 ft 412 kts 245°
2026-04-29 01:33 24.32501 45.48311 31117 ft 411 kts 245°
2026-04-29 01:33 24.31245 45.45499 31447 ft 409 kts 245°
2026-04-29 01:33 24.29995 45.42698 31747 ft 409 kts 245°
2026-04-29 01:33 24.28677 45.39937 31916 ft 410 kts 240°
2026-04-29 01:34 24.26134 45.34476 31919 ft 396 kts 247°
2026-04-29 01:34 24.23833 45.29009 31912 ft 395 kts 246°
2026-04-29 01:35 24.21463 45.23617 31916 ft 395 kts 245°
2026-04-29 01:35 24.19046 45.18222 31923 ft 394 kts 245°
2026-04-29 01:36 24.16629 45.12841 31928 ft 394 kts 245°
2026-04-29 01:36 24.14206 45.07458 31918 ft 393 kts 245°
2026-04-29 01:37 24.11787 45.02083 31919 ft 393 kts 245°
2026-04-29 01:37 24.09378 44.96763 31925 ft 393 kts 245°
2026-04-29 01:38 24.06943 44.91413 31927 ft 392 kts 245°
2026-04-29 01:38 24.04517 44.86047 31933 ft 393 kts 245°
2026-04-29 01:39 24.02102 44.80682 31935 ft 393 kts 245°
2026-04-29 01:39 23.99679 44.75330 31933 ft 391 kts 245°
2026-04-29 01:40 23.97235 44.69949 31923 ft 397 kts 245°
2026-04-29 01:40 23.94783 44.64554 31928 ft 397 kts 245°
2026-04-29 01:41 23.92460 44.59091 31929 ft 395 kts 252°
2026-04-29 01:41 23.91102 44.53283 31934 ft 394 kts 258°
2026-04-29 01:42 23.89920 44.47431 31932 ft 394 kts 257°
2026-04-29 01:42 23.88709 44.41632 31934 ft 393 kts 257°
2026-04-29 01:43 23.87462 44.35811 31939 ft 393 kts 257°
2026-04-29 01:43 23.86214 44.30007 31929 ft 392 kts 257°
2026-04-29 01:44 23.84978 44.24200 31923 ft 392 kts 257°
2026-04-29 01:44 23.83749 44.18433 31926 ft 392 kts 257°
2026-04-29 01:45 23.82501 44.12636 31923 ft 392 kts 257°
2026-04-29 01:45 23.81255 44.06845 31935 ft 391 kts 256°
2026-04-29 01:46 23.80000 44.01061 31943 ft 391 kts 257°
2026-04-29 01:46 23.78745 43.95269 31935 ft 391 kts 257°
2026-04-29 01:47 23.77499 43.89527 31936 ft 391 kts 257°
2026-04-29 01:47 23.76240 43.83743 31927 ft 393 kts 257°
2026-04-29 01:48 23.74972 43.77946 31936 ft 392 kts 257°
2026-04-29 01:48 23.73708 43.72159 31940 ft 392 kts 257°
2026-04-29 01:49 23.72428 43.66367 31935 ft 392 kts 256°
2026-04-29 01:49 23.71148 43.60571 31945 ft 393 kts 256°
2026-04-29 01:50 23.69873 43.54793 31936 ft 392 kts 257°
2026-04-29 01:50 23.68592 43.49008 31944 ft 392 kts 256°
2026-04-29 01:51 23.67302 43.43206 31944 ft 393 kts 256°
2026-04-29 01:51 23.66011 43.37394 31948 ft 394 kts 256°
2026-04-29 01:52 23.64724 43.31587 31944 ft 393 kts 256°
2026-04-29 01:52 23.63432 43.25779 31938 ft 394 kts 256°
2026-04-29 01:53 23.62140 43.20016 31931 ft 394 kts 256°
2026-04-29 01:53 23.60839 43.14201 31946 ft 395 kts 256°
2026-04-29 01:54 23.59534 43.08379 31953 ft 394 kts 256°
2026-04-29 01:54 23.58208 43.02475 31957 ft 408 kts 256°
2026-04-29 01:55 23.56851 42.96446 31956 ft 409 kts 256°
2026-04-29 01:55 23.55503 42.90460 31950 ft 410 kts 256°
2026-04-29 01:56 23.54140 42.84431 31949 ft 409 kts 256°
2026-04-29 01:56 23.52778 42.78411 31952 ft 408 kts 256°
2026-04-29 01:57 23.51421 42.72395 31957 ft 408 kts 256°
2026-04-29 01:57 23.50049 42.66390 31960 ft 409 kts 256°
2026-04-29 01:58 23.48682 42.60394 31961 ft 408 kts 256°
2026-04-29 01:58 23.47324 42.54423 31974 ft 408 kts 256°
2026-04-29 01:59 23.45951 42.48424 31980 ft 408 kts 256°
2026-04-29 01:59 23.44578 42.42423 31980 ft 408 kts 256°
2026-04-29 02:00 23.43197 42.36441 31980 ft 407 kts 256°
2026-04-29 02:00 23.41821 42.30461 31982 ft 407 kts 256°
2026-04-29 02:01 23.40444 42.24478 31982 ft 407 kts 256°
2026-04-29 02:01 23.39079 42.18539 31986 ft 407 kts 256°
2026-04-29 02:02 23.37707 42.12553 31989 ft 407 kts 256°
2026-04-29 02:02 23.36327 42.06563 31992 ft 407 kts 256°
2026-04-29 02:03 23.34946 42.00586 31994 ft 407 kts 256°
2026-04-29 02:03 23.33555 41.94606 31991 ft 407 kts 256°
2026-04-29 02:04 23.32173 41.88672 31998 ft 407 kts 256°
2026-04-29 02:04 23.30782 41.82701 31999 ft 407 kts 256°
2026-04-29 02:05 23.29383 41.76713 32000 ft 408 kts 256°
2026-04-29 02:05 23.27611 41.70857 31998 ft 409 kts 244°
2026-04-29 02:06 23.24550 41.65607 32000 ft 411 kts 238°
2026-04-29 02:06 23.21359 41.60435 32001 ft 411 kts 239°
2026-04-29 02:07 23.18266 41.55259 32017 ft 411 kts 239°
2026-04-29 02:07 23.15164 41.50026 32028 ft 412 kts 239°
2026-04-29 02:08 23.12065 41.44778 32030 ft 412 kts 239°
2026-04-29 02:08 23.08951 41.39527 32031 ft 413 kts 239°
2026-04-29 02:09 23.05837 41.34285 32036 ft 413 kts 239°
2026-04-29 02:09 23.02725 41.29046 32035 ft 413 kts 239°
2026-04-29 02:10 22.99604 41.23794 32032 ft 413 kts 239°
2026-04-29 02:10 22.96502 41.18573 32040 ft 414 kts 239°
2026-04-29 02:11 22.93376 41.13325 32037 ft 414 kts 239°
2026-04-29 02:11 22.90242 41.08076 32041 ft 415 kts 239°
2026-04-29 02:12 22.88706 41.05509 32032 ft 399 kts 239°
2026-04-29 02:12 22.87208 41.03002 32031 ft 396 kts 239°
2026-04-29 02:12 22.84229 40.98008 32046 ft 396 kts 239°
2026-04-29 02:13 22.81228 40.92995 32051 ft 396 kts 239°
2026-04-29 02:13 22.78232 40.88002 32048 ft 396 kts 239°
2026-04-29 02:14 22.75225 40.82983 32052 ft 397 kts 239°
2026-04-29 02:14 22.72207 40.77961 32050 ft 397 kts 239°
2026-04-29 02:15 22.69196 40.72980 32050 ft 397 kts 239°
2026-04-29 02:15 22.67699 40.70496 31906 ft 388 kts 239°
2026-04-29 02:15 22.66218 40.68033 31646 ft 390 kts 239°
2026-04-29 02:16 22.64733 40.65573 31404 ft 389 kts 239°
2026-04-29 02:16 22.63256 40.63129 31153 ft 388 kts 239°
2026-04-29 02:16 22.61787 40.60673 30904 ft 387 kts 239°
2026-04-29 02:16 22.60323 40.58231 30654 ft 386 kts 239°
2026-04-29 02:17 22.58864 40.55808 30404 ft 384 kts 239°
2026-04-29 02:17 22.57417 40.53416 30155 ft 383 kts 239°
2026-04-29 02:17 22.55961 40.51006 29908 ft 381 kts 240°
2026-04-29 02:17 22.54519 40.48613 29548 ft 378 kts 239°
2026-04-29 02:18 22.53087 40.46241 29087 ft 374 kts 239°
2026-04-29 02:18 22.51670 40.43895 28605 ft 370 kts 239°
2026-04-29 02:18 22.50267 40.41572 28131 ft 367 kts 239°
2026-04-29 02:18 22.48874 40.39267 27679 ft 363 kts 239°
2026-04-29 02:19 22.47496 40.36992 27227 ft 360 kts 239°
2026-04-29 02:19 22.46131 40.34731 26729 ft 357 kts 238°
2026-04-29 02:19 22.45233 40.33245 26410 ft 356 kts 238°
2026-04-29 02:19 22.43888 40.31015 25966 ft 353 kts 238°
2026-04-29 02:20 22.42547 40.28800 25517 ft 349 kts 238°
2026-04-29 02:20 22.41225 40.26617 25080 ft 346 kts 238°
2026-04-29 02:20 22.39914 40.24452 24635 ft 342 kts 237°
2026-04-29 02:20 22.38619 40.22313 24188 ft 339 kts 237°
2026-04-29 02:21 22.37336 40.20196 23733 ft 336 kts 237°
2026-04-29 02:21 22.36060 40.18096 23294 ft 332 kts 237°
2026-04-29 02:21 22.34807 40.16037 22884 ft 329 kts 237°
2026-04-29 02:21 22.33555 40.13980 22462 ft 326 kts 236°
2026-04-29 02:22 22.32161 40.12029 21733 ft 330 kts 230°
2026-04-29 02:22 22.30629 40.10160 20911 ft 335 kts 228°
2026-04-29 02:22 22.29063 40.08294 20351 ft 333 kts 228°
2026-04-29 02:22 22.27519 40.06456 19907 ft 328 kts 229°
2026-04-29 02:23 22.26002 40.04636 19516 ft 323 kts 228°
2026-04-29 02:23 22.24507 40.02838 19146 ft 319 kts 228°
2026-04-29 02:23 22.23036 40.01062 18768 ft 316 kts 229°
2026-04-29 02:23 22.21589 39.99316 18414 ft 315 kts 228°
2026-04-29 02:24 22.20117 39.97536 18041 ft 312 kts 228°
2026-04-29 02:24 22.18693 39.95817 17696 ft 311 kts 228°
2026-04-29 02:24 22.17251 39.94082 17339 ft 310 kts 228°
2026-04-29 02:25 22.14387 39.90624 16595 ft 309 kts 228°
2026-04-29 02:25 22.12954 39.88900 16236 ft 308 kts 227°
2026-04-29 02:25 22.11525 39.87182 15885 ft 307 kts 228°
2026-04-29 02:25 22.10101 39.85469 15541 ft 306 kts 227°
2026-04-29 02:26 22.08683 39.83761 15206 ft 304 kts 227°
2026-04-29 02:26 22.07268 39.82056 14848 ft 304 kts 227°
2026-04-29 02:26 22.05859 39.80360 14495 ft 304 kts 227°
2026-04-29 02:26 22.04447 39.78664 14128 ft 304 kts 227°
2026-04-29 02:27 22.03057 39.76994 13789 ft 303 kts 227°
2026-04-29 02:27 22.01648 39.75302 13445 ft 302 kts 227°
2026-04-29 02:27 22.00250 39.73620 13110 ft 301 kts 227°
2026-04-29 02:27 21.98854 39.71945 12770 ft 300 kts 227°
2026-04-29 02:28 21.97462 39.70271 12442 ft 298 kts 227°
2026-04-29 02:28 21.96078 39.68614 12092 ft 297 kts 227°
2026-04-29 02:28 21.94695 39.66962 11744 ft 297 kts 227°
2026-04-29 02:28 21.93319 39.65315 11414 ft 296 kts 227°
2026-04-29 02:29 21.91945 39.63668 11083 ft 295 kts 227°
2026-04-29 02:29 21.90571 39.62021 10748 ft 294 kts 227°
2026-04-29 02:29 21.89228 39.60412 10495 ft 292 kts 228°
2026-04-29 02:29 21.87882 39.58807 10278 ft 283 kts 228°
2026-04-29 02:30 21.86574 39.57246 10091 ft 278 kts 228°
2026-04-29 02:30 21.85283 39.55709 9902 ft 280 kts 228°
2026-04-29 02:30 21.83971 39.54149 9775 ft 279 kts 228°
2026-04-29 02:30 21.82679 39.52602 9439 ft 277 kts 228°
2026-04-29 02:31 21.81395 39.51067 9067 ft 275 kts 229°
2026-04-29 02:31 21.80118 39.49545 8706 ft 274 kts 229°
2026-04-29 02:31 21.78830 39.48008 8386 ft 279 kts 229°
2026-04-29 02:31 21.77550 39.46485 8108 ft 277 kts 229°
2026-04-29 02:32 21.76248 39.44929 7825 ft 276 kts 229°
2026-04-29 02:32 21.74989 39.43425 7553 ft 274 kts 229°
2026-04-29 02:32 21.73714 39.41902 7254 ft 273 kts 229°
2026-04-29 02:32 21.72440 39.40384 6941 ft 272 kts 229°
2026-04-29 02:33 21.71174 39.38874 6628 ft 272 kts 229°
2026-04-29 02:33 21.69909 39.37372 6294 ft 271 kts 230°
2026-04-29 02:33 21.68650 39.35869 5812 ft 269 kts 229°
2026-04-29 02:33 21.67419 39.34405 5562 ft 258 kts 230°
2026-04-29 02:34 21.66239 39.32997 5304 ft 249 kts 230°
2026-04-29 02:34 21.65083 39.31625 4951 ft 246 kts 230°
2026-04-29 02:34 21.63867 39.30355 4513 ft 246 kts 216°
2026-04-29 02:34 21.62276 39.29698 4043 ft 249 kts 186°
2026-04-29 02:35 21.60583 39.29928 3606 ft 246 kts 162°
2026-04-29 02:35 21.59005 39.30575 3192 ft 243 kts 157°
2026-04-29 02:35 21.57479 39.31251 3016 ft 231 kts 158°
2026-04-29 02:35 21.56027 39.31865 2986 ft 221 kts 162°
2026-04-29 02:36 21.54523 39.32072 2977 ft 218 kts 192°
2026-04-29 02:36 21.53205 39.31340 2971 ft 216 kts 226°
2026-04-29 02:36 21.52513 39.30057 2665 ft 211 kts 251°
2026-04-29 02:36 21.52037 39.28514 2491 ft 210 kts 253°
2026-04-29 02:37 21.51584 39.27047 2480 ft 199 kts 254°
2026-04-29 02:37 21.51336 39.25687 2475 ft 179 kts 267°
2026-04-29 02:37 21.51515 39.24402 2468 ft 174 kts 300°
2026-04-29 02:37 21.52415 39.23569 2492 ft 174 kts 334°
2026-04-29 02:38 21.53574 39.23107 2510 ft 176 kts 342°
2026-04-29 02:38 21.54722 39.22723 2485 ft 174 kts 342°
2026-04-29 02:38 21.55870 39.22307 2308 ft 174 kts 340°
2026-04-29 02:38 21.57008 39.21862 2091 ft 174 kts 340°
2026-04-29 02:39 21.58133 39.21421 1860 ft 168 kts 340°
2026-04-29 02:39 21.59179 39.21007 1664 ft 150 kts 340°
2026-04-29 02:39 21.60085 39.20648 1452 ft 134 kts 340°
2026-04-29 02:39 21.60958 39.20303 1268 ft 134 kts 340°
2026-04-29 02:40 21.61827 39.19960 1094 ft 133 kts 340°
2026-04-29 02:40 21.62695 39.19616 919 ft 133 kts 340°
2026-04-29 02:40 21.63559 39.19275 742 ft 132 kts 340°
2026-04-29 02:40 21.64422 39.18933 568 ft 132 kts 340°
2026-04-29 02:41 21.65281 39.18595 385 ft 132 kts 340°
2026-04-29 02:41 21.66144 39.18257 199 ft 132 kts 339°
2026-04-29 02:41 21.67003 39.17913 50 ft 129 kts 340°
2026-04-29 02:41 21.67768 39.17609 39 ft 95 kts 339°
2026-04-29 02:42 21.68208 39.17431 34 ft 41 kts 339°
2026-04-29 02:42 21.68365 39.17269 30 ft 31 kts 311°
2026-04-29 02:42 21.68439 39.17174 32 ft 0 kts 308°
2026-04-29 02:42 21.68450 39.17159 32 ft 7 kts 308°
2026-04-29 02:43 21.68503 39.17084 32 ft 16 kts 293°
2026-04-29 02:43 21.68442 39.17003 34 ft 19 kts 158°
2026-04-29 02:43 21.68317 39.17056 35 ft 20 kts 160°
2026-04-29 02:43 21.68177 39.17110 35 ft 22 kts 160°
2026-04-29 02:44 21.68031 39.17167 35 ft 23 kts 160°
2026-04-29 02:44 21.67890 39.17218 36 ft 14 kts 181°
2026-04-29 02:44 21.67832 39.17136 35 ft 15 kts 254°
2026-04-29 02:44 21.67750 39.17095 36 ft 16 kts 158°
2026-04-29 02:45 21.67693 39.17092 36 ft 9 kts 242°
2026-04-29 02:45 21.67672 39.17037 35 ft 3 kts 249°
2026-04-29 02:45 21.67671 39.17034 35 ft 0 kts 250°
2026-04-29 02:53 21.67723 39.14588 33 ft 0 kts 249°
2026-04-29 02:55 21.67321 39.13541 32 ft 0 kts 250°